Location: Coleto Creek Park and Reservoir
(28.7196°N, 97.1740°W)
Time: 19:00:46
(UTC-05:00)

Hubble Space Telescope - Visible Passes

Search period start: 24 March 2017 00:00
Search period end: 03 April 2017 00:00
Orbit: 538 x 542 km, 28.5° (Epoch: 23 March)

Date Brightness Start Highest point End Pass type
(mag) Time Alt. Az. Time Alt. Az. Time Alt. Az.
24 Mar 2.0 06:18:35 19° SSW 06:20:51 33° SSE 06:24:35 10° E visible
25 Mar 1.6 06:09:14 28° SSW 06:10:48 40° SSE 06:14:42 10° E visible
26 Mar 1.3 05:59:49 40° SSW 06:00:47 49° SSE 06:04:46 10° E visible
27 Mar 0.9 05:50:22 55° SSW 05:50:46 58° SSE 05:54:50 10° E visible
28 Mar 0.8 05:40:52 67° SSE 05:40:52 67° SSE 05:44:52 10° E visible
29 Mar 1.1 05:31:22 61° ESE 05:31:22 61° ESE 05:34:54 10° E visible
30 Mar 1.6 05:21:52 48° E 05:21:52 48° E 05:24:55 10° E visible
31 Mar 2.1 05:12:23 37° E 05:12:23 37° E 05:14:56 10° E visible
31 Mar 0.8 06:47:55 10° W 06:52:02 72° S 06:56:09 10° ESE visible
01 Apr 2.6 05:02:56 28° E 05:02:56 28° E 05:04:58 10° E visible
01 Apr 0.9 06:38:18 12° W 06:42:02 64° SSW 06:46:07 10° ESE visible
02 Apr 3.1 04:53:32 21° E 04:53:32 21° E 04:54:59 10° E visible
02 Apr 1.0 06:28:54 16° W 06:32:01 54° SSW 06:36:03 10° ESE visible
